[[{"header":{"parameterUnit":"m.s-1","parameterCategory":1,"la1":30.2991,"la2":30.254,"lo1":-89.0895,"lo2":-89.0444,"dy":0.0017,"dx":0.0017,"nx":28,"ny":28,"refTime":"2024-08-25T21:00:00:Z","depth":0,"parameterNumber":2,"parameterNumberName":"U-component_of_WINDS"},"data":[0,0,0,0,0,0,0,0,0,0,0,0,0,0,0,0,0,0,0,0,0,0,0,0,0,0,0,0,0,0,0,0,0,0,0,0,0,0,0,0,0,0,0,0,0,0,0,0,0,0,0,0,0,0,0,0,0,0,-2.0233,-2.0232,0,-2.0102,-2.01,-2.0099,-2.0032,-2.0032,-2.0032,-2.0031,-1.9894,-1.9891,-1.9887,0,0,0,0,0,0,0,0,0,0,0,0,0,-2.0427,-2.0424,-2.0234,-2.0232,-2.023,-2.0102,-2.01,-2.0098,-2.0032,-2.0032,-2.0032,-2.0031,-1.9895,-1.9891,-1.9887,0,0,0,0,0,0,0,0,0,0,0,0,0,-2.0324,-2.0423,-2.0234,-2.0182,-2.0176,-2.0102,-2.01,-2.0098,-2.0032,-2.0032,-2.0032,-2.0031,-1.9897,-1.9891,-1.9886,-1.9854,0,0,-1.987,-1.9867,0,0,0,0,0,0,0,0,-2.033,-2.0317,-2.0191,-2.0185,-2.0178,-2.0083,-2.0118,-2.0016,-2.0032,-2.0086,-2.0031,-2.0031,-1.9957,-1.9947,-1.9922,-1.9848,-1.9842,-1.9869,-1.9866,-1.9863,-1.9862,0,0,0,0,0,0,0,-2.0337,-2.0322,-2.0181,-2.0189,-2.0181,-2.0165,-2.015,-2.0098,-2.0023,-2.0081,-2.0076,-2.0062,-1.9953,-1.9927,-1.9918,-1.984,-1.9869,-1.9864,-1.9861,-1.9859,-1.9734,-1.9734,0,0,0,0,0,0,-2.0353,-2.0329,-2.0185,-2.0177,-2.0256,-2.0161,-2.0145,-2.0114,-2.0024,-2.001,-2.0062,-2.0059,-1.9937,-1.9925,-1.9913,-1.987,-1.9864,-1.9858,-1.9855,-1.9734,-1.9734,-1.9734,0,0,0,0,0,0,-2.0357,-2.0341,-2.0191,-2.0252,-2.0231,-2.0158,-2.0124,-2.0111,-2.0085,-2.0009,-1.9995,-2.0049,-1.9936,-1.9921,-1.987,-1.9864,-1.9856,-1.9851,-1.9734,-1.9734,-1.9734,-1.9784,0,0,0,0,0,0,-2.0363,-2.0343,-2.033,-2.0252,-2.0228,-2.015,-2.0123,-2.0109,-2.0076,-2.0071,-1.9993,-1.998,-1.9935,-1.9878,-1.9864,-1.9857,-1.9847,-1.9735,-1.9734,-1.9734,-1.9782,-1.9785,-1.9788,0,0,0,0,0,-2.037,-2.0348,-2.0329,-2.0312,-2.021,-2.015,-2.0136,-2.0085,-2.0076,-2.0062,-2.0014,-1.9983,-1.9868,-1.9874,-1.9857,-1.9848,-1.9735,-1.9734,-1.9734,-1.9781,-1.9785,-1.9788,0,0,0,0,0,0,-2.0425,-2.0337,-2.0315,-2.0267,-2.0217,-2.0139,-2.0119,-2.009,-2.0041,-2.0038,-1.9976,-1.9959,-1.9914,-1.9876,-1.9884,-1.9813,-1.9798,-1.9795,-1.9839,-1.9842,-1.9845,-1.9854,-1.9842,0,0,0,0,0,-2.0433,-2.0391,-2.0315,-2.028,-2.0256,-2.0193,-2.0164,-2.013,-2.0074,-2.0052,-2.0,-1.9948,-1.99,-1.9869,-1.9821,-1.9777,-1.976,-1.9763,-1.9766,-1.9769,-1.9766,-1.9741,-1.9742,-1.9734,-1.9734,-1.9734,0,0,-2.0446,-2.0392,-2.0369,-2.029,-2.0247,-2.0205,-2.0175,-2.0132,-2.01,-2.0045,-1.9994,-1.9955,-1.9892,-1.9845,-1.9822,-1.9812,-1.9765,-1.9769,-1.9772,-1.9767,-1.9741,-1.9742,-1.9743,-1.9734,-1.9734,-1.9734,0,0,-2.0448,-2.0404,-2.037,-2.0328,-2.0264,-2.0222,-2.0214,-2.0141,-2.0113,-2.0061,-2.002,-1.9982,-1.99,-1.9857,-1.9825,-1.9815,-1.9785,-1.9802,-1.9816,-1.9792,-1.9793,-1.9793,-1.979,-1.9789,-1.9799,-1.98,-1.98,0,-2.0472,-2.0408,-2.0356,-2.0315,-2.0282,-2.0233,-2.0199,-2.016,-2.0083,-2.0061,-2.0052,-1.9951,-1.9905,-1.9848,-1.9846,-1.9821,-1.981,-1.9809,-1.9797,-1.9797,-1.9797,-1.9792,-1.9791,-1.9802,-1.9802,-1.9801,-1.9801,0,-2.0441,-2.0397,-2.0378,-2.0306,-2.0271,-2.0234,-2.0176,-2.0147,-2.0117,-2.0076,-2.0025,-1.9969,-1.9909,-1.9893,-1.9862,-1.9832,-1.9828,-1.9809,-1.9792,-1.9801,-1.9796,-1.9794,-1.9805,-1.9804,-1.9804,-1.9803,0,0,-2.0471,-2.0374,-2.0367,-2.0335,-2.0262,-2.0227,-2.0189,-2.0131,-2.0107,-2.0057,-2.0023,-1.9957,-1.9939,-1.9903,-1.9867,-1.9847,-1.9843,-1.983,-1.9828,-1.9834,-1.9807,-1.9821,-1.982,-1.9824,-1.9823,-1.9823,-1.9812,0,-2.0463,-2.0391,-2.0345,-2.0292,-2.0251,-2.0205,-2.0172,-2.0124,-2.0086,-2.0046,-2.0004,-1.9958,-1.9938,-1.9916,-1.9895,-1.9848,-1.9837,-1.9849,-1.9791,-1.9789,-1.9806,-1.9817,-1.9831,-1.9823,-1.981,-1.981,-1.9809,0,-2.0442,-2.0395,-2.0338,-2.0271,-2.0252,-2.0223,-2.0167,-2.013,-2.0075,-2.0049,-2.001,-1.9975,-1.9932,-1.9922,-1.9863,-1.9872,-1.9846,-1.9821,-1.9819,-1.981,-1.9799,-1.9808,-1.982,-1.9818,-1.9806,-1.9806,-1.9806,0,-2.047,-2.0392,-2.0348,-2.0322,-2.0242,-2.0223,-2.0189,-2.0134,-2.0104,-2.0055,-2.0035,-1.9983,-1.9953,-1.9914,-1.9865,-1.9862,-1.9812,-1.9796,-1.9788,-1.979,-1.9778,-1.9779,-1.9785,-1.9764,-1.9764,-1.9764,-1.9764,0,-2.0464,-2.0431,-2.0359,-2.0332,-2.0294,-2.0242,-2.0206,-2.0168,-2.0121,-2.0085,-2.0043,-2.0011,-1.995,-1.9911,-1.9873,-1.983,-1.9817,-1.9795,-1.9785,-1.9798,-1.98,-1.9778,-1.9777,-1.9764,-1.9764,-1.9764,-1.9764,0,-2.0488,-2.0438,-2.0387,-2.0318,-2.03,-2.0275,-2.0215,-2.0187,-2.0149,-2.0105,-2.0092,-2.003,-1.9982,-1.993,-1.9864,-1.9839,-1.9798,-1.9785,-1.9817,-1.9811,-1.9805,-1.9806,-1.9796,-1.9792,-1.9776,-1.9776,-1.9776,0,-2.0487,-2.0461,-2.0389,-2.0363,-2.033,-2.0289,-2.0258,-2.0206,-2.0175,-2.0113,-2.0092,-2.0042,-1.9998,-1.9923,-1.9872,-1.9822,-1.9807,-1.9807,-1.9799,-1.9813,-1.9806,-1.9807,-1.9804,-1.9809,-1.9809,-1.9809,-1.981,0,-2.049,-2.0468,-2.0425,-2.0374,-2.0338,-2.0295,-2.025,-2.0232,-2.0171,-2.0139,-2.009,-2.0056,-1.999,-1.994,-1.9885,-1.985,-1.982,-1.9813,-1.9808,-1.982,-1.984,-1.9829,-1.9822,-1.9813,-1.9813,-1.9812,-1.9812,-1.9812,-2.0501,-2.0476,-2.0422,-2.0376,-2.0337,-2.0297,-2.0268,-2.0226,-2.0185,-2.0127,-2.01,-2.0051,-1.9998,-1.992,-1.9887,-1.9848,-1.9839,-1.9832,-1.983,-1.9829,-1.9832,-1.9848,-1.9838,-1.9838,-1.9837,-1.9837,-1.9837,0,-2.0501,-2.0465,-2.0424,-2.0363,-2.0327,-2.0304,-2.0254,-2.0226,-2.0183,-2.0137,-2.0096,-2.004,-1.9992,-1.9939,-1.9888,-1.9867,-1.9852,-1.9855,-1.9855,-1.9848,-1.9843,-1.9852,-1.9868,-1.9868,-1.9868,-1.9868,-1.9868,-1.9868,-2.0498,-2.0454,-2.0426,-2.0363,-2.0327,-2.0279,-2.0253,-2.0216,-2.0179,-2.0119,-2.0079,-2.0045,-1.9997,-1.9942,-1.9897,-1.9883,-1.9866,-1.9873,-1.9854,-1.9851,-1.9848,-1.9846,-1.9854,-1.987,-1.987,-1.9862,-1.9862,-1.9862]},{"header":{"parameterUnit":"m.s-1","parameterCategory":1,"la1":30.2991,"la2":30.254,"lo1":-89.0895,"lo2":-89.0444,"dy":0.0017,"dx":0.0017,"nx":28,"ny":28,"refTime":"2024-08-25T21:00:00:Z","depth":0,"parameterNumber":3,"parameterNumberName":"V-component_of_WINDS"},"data":[0,0,0,0,0,0,0,0,0,0,0,0,0,0,0,0,0,0,0,0,0,0,0,0,0,0,0,0,0,0,0,0,0,0,0,0,0,0,0,0,0,0,0,0,0,0,0,0,0,0,0,0,0,0,0,0,0,0,2.6256,2.6256,0,2.6291,2.6291,2.6292,2.6332,2.6333,2.6333,2.6334,2.6366,2.6367,2.6367,0,0,0,0,0,0,0,0,0,0,0,0,0,2.622,2.622,2.6256,2.6256,2.6257,2.6291,2.6292,2.6292,2.6332,2.6333,2.6333,2.6334,2.6366,2.6367,2.6367,0,0,0,0,0,0,0,0,0,0,0,0,0,2.6243,2.622,2.6256,2.6281,2.6283,2.6291,2.6292,2.6292,2.6332,2.6333,2.6334,2.6335,2.6366,2.6367,2.6367,2.6352,0,0,2.6369,2.6369,0,0,0,0,0,0,0,0,2.6242,2.6244,2.6277,2.6279,2.6282,2.6308,2.6291,2.6312,2.6332,2.6313,2.6334,2.6335,2.6346,2.6348,2.6353,2.6353,2.6355,2.6369,2.6369,2.6369,2.6369,0,0,0,0,0,0,0,2.624,2.6243,2.627,2.6277,2.628,2.6289,2.6294,2.6295,2.6324,2.6315,2.6318,2.6322,2.6348,2.6352,2.6354,2.6355,2.6369,2.6369,2.6369,2.6369,2.6344,2.6343,0,0,0,0,0,0,2.6235,2.6241,2.6269,2.6271,2.6264,2.6289,2.6294,2.6299,2.6324,2.6329,2.6321,2.6324,2.6351,2.6353,2.6355,2.6338,2.6369,2.6369,2.637,2.6345,2.6344,2.6343,0,0,0,0,0,0,2.6234,2.6237,2.6267,2.6257,2.6261,2.6289,2.6294,2.6299,2.6304,2.6329,2.6334,2.6321,2.6352,2.6354,2.6352,2.634,2.637,2.637,2.6346,2.6345,2.6343,2.6305,0,0,0,0,0,0,2.6233,2.6237,2.6232,2.6257,2.6262,2.6265,2.6293,2.6299,2.6305,2.6308,2.633,2.6334,2.6353,2.6351,2.6353,2.6341,2.637,2.6347,2.6345,2.6344,2.6307,2.6302,2.6298,0,0,0,0,0,2.6232,2.6219,2.6231,2.6234,2.6256,2.6264,2.6267,2.629,2.6304,2.6298,2.6315,2.6333,2.6341,2.6351,2.6353,2.6341,2.6348,2.6346,2.6344,2.6309,2.6303,2.6298,0,0,0,0,0,0,2.619,2.6222,2.6237,2.6232,2.6245,2.6271,2.6265,2.6282,2.6291,2.6294,2.6321,2.6325,2.632,2.633,2.634,2.6327,2.6347,2.6346,2.632,2.6315,2.631,2.6307,2.6371,0,0,0,0,0,2.6181,2.6185,2.6213,2.6205,2.6211,2.6237,2.6241,2.6258,2.6272,2.6277,2.6293,2.6305,2.6311,2.6313,2.632,2.6309,2.6314,2.6302,2.6297,2.6293,2.6291,2.6286,2.6281,2.6336,2.6336,2.6336,0,0,2.616,2.6179,2.618,2.6197,2.621,2.6213,2.6241,2.6243,2.6245,2.6277,2.6276,2.6288,2.6304,2.6297,2.6295,2.6306,2.6277,2.6291,2.6287,2.6287,2.6283,2.6278,2.6273,2.6334,2.6335,2.6335,0,0,2.6125,2.614,2.6136,2.6148,2.6166,2.6183,2.6182,2.6206,2.6215,2.6215,2.6239,2.6242,2.625,2.626,2.6266,2.6236,2.6253,2.6237,2.6212,2.6207,2.6202,2.6198,2.6187,2.6182,2.6235,2.6235,2.6234,0,2.6098,2.6104,2.6131,2.6131,2.6138,2.6169,2.6164,2.6174,2.6193,2.6196,2.6209,2.622,2.6233,2.6229,2.6221,2.6226,2.6224,2.6234,2.6201,2.6197,2.6194,2.6184,2.6179,2.6232,2.6233,2.6233,2.6233,0,2.6069,2.6073,2.6067,2.6086,2.6093,2.609,2.6116,2.6118,2.6135,2.615,2.6149,2.6166,2.6176,2.6176,2.6191,2.6174,2.618,2.6196,2.6217,2.6187,2.6177,2.6173,2.6229,2.623,2.6231,2.6231,0,0,2.6008,2.6043,2.604,2.6049,2.6072,2.6075,2.6074,2.6085,2.6087,2.6099,2.6098,2.6105,2.612,2.6127,2.6144,2.6139,2.6113,2.6156,2.6157,2.6147,2.6094,2.6082,2.6077,2.6125,2.6124,2.6124,2.6093,0,2.5976,2.5978,2.6002,2.5996,2.6,2.6029,2.6028,2.6041,2.6056,2.606,2.6076,2.608,2.61,2.6104,2.6101,2.6117,2.6103,2.612,2.6123,2.6123,2.6118,2.6072,2.6058,2.6028,2.6089,2.6089,2.6088,0,2.594,2.5951,2.5946,2.597,2.5972,2.5971,2.5983,2.5987,2.6003,2.6014,2.6022,2.6041,2.604,2.6061,2.606,2.6071,2.6074,2.6082,2.6081,2.6082,2.6103,2.607,2.602,2.6015,2.6083,2.6083,2.6084,0,2.5895,2.5909,2.5908,2.5915,2.5942,2.5941,2.5952,2.5969,2.5974,2.5984,2.5987,2.5997,2.6002,2.6008,2.6029,2.6042,2.6026,2.6048,2.6034,2.6033,2.6028,2.6028,2.5976,2.6031,2.6031,2.6031,2.6031,0,2.5857,2.5853,2.5889,2.5888,2.5883,2.591,2.5905,2.5919,2.5933,2.5935,2.596,2.5961,2.5989,2.5992,2.6009,2.6005,2.6007,2.6015,2.6019,2.6013,2.6011,2.6014,2.6017,2.603,2.603,2.6031,2.6031,0,2.5806,2.583,2.5831,2.5857,2.5864,2.5859,2.5881,2.5881,2.5897,2.5899,2.5901,2.5926,2.5931,2.5953,2.5963,2.5975,2.5965,2.5974,2.596,2.5963,2.5948,2.5948,2.5895,2.589,2.5948,2.5948,2.5947,0,2.578,2.5778,2.5804,2.5808,2.5818,2.5824,2.5829,2.5856,2.5861,2.5878,2.5875,2.5883,2.5891,2.5898,2.5916,2.5924,2.5933,2.5914,2.5934,2.5927,2.5932,2.5932,2.5931,2.5909,2.5908,2.5908,2.5907,0,2.5731,2.5744,2.5752,2.5764,2.5771,2.5781,2.5793,2.5794,2.5823,2.5827,2.5834,2.584,2.5851,2.5858,2.5869,2.5879,2.5897,2.5901,2.5898,2.589,2.5882,2.5886,2.5948,2.5902,2.5902,2.5903,2.5903,2.5903,2.5692,2.5691,2.571,2.5718,2.573,2.5741,2.5742,2.5759,2.5765,2.5777,2.5792,2.5797,2.5812,2.5829,2.5838,2.5841,2.5851,2.5847,2.5846,2.5844,2.5841,2.5883,2.5843,2.5843,2.5843,2.5843,2.5843,0,2.5644,2.5658,2.5665,2.5682,2.5688,2.5706,2.572,2.5724,2.5728,2.5741,2.5749,2.5756,2.5763,2.5782,2.5791,2.5789,2.5798,2.5791,2.5791,2.5792,2.5831,2.5832,2.5783,2.5783,2.5783,2.5783,2.5783,2.5783,2.562,2.5619,2.5634,2.5639,2.5653,2.5658,2.5665,2.5674,2.5685,2.5692,2.5699,2.5712,2.5727,2.5737,2.5744,2.5749,2.5751,2.5741,2.5749,2.5784,2.579,2.5795,2.5797,2.5741,2.5741,2.571,2.571,2.571]}]]